[[{"header":{"parameterUnit":"m.s-1","parameterCategory":1,"la1":30.2991,"la2":30.254,"lo1":-89.0895,"lo2":-89.0444,"dy":0.0017,"dx":0.0017,"nx":28,"ny":28,"refTime":"2023-10-14T03:00:00:Z","depth":0,"parameterNumber":2,"parameterNumberName":"U-component_of_WINDS"},"data":[0,0,0,0,0,0,0,0,0,0,0,0,0,0,0,0,0,0,0,0,0,0,0,0,0,0,0,0,0,0,0,0,0,0,0,0,0,0,0,0,0,0,0,0,0,0,0,0,0,0,0,0,0,0,0,0,0,0,0.2431,0.2431,0,0.2365,0.2364,0.2364,0.2329,0.2329,0.2329,0.2329,0.2262,0.226,0.2259,0,0,0,0,0,0,0,0,0,0,0,0,0,0.253,0.2529,0.2432,0.2431,0.243,0.2365,0.2364,0.2363,0.2329,0.2329,0.2329,0.2329,0.2263,0.2261,0.2258,0,0,0,0,0,0,0,0,0,0,0,0,0,0.2478,0.2528,0.2432,0.2405,0.2402,0.2365,0.2364,0.2363,0.233,0.2329,0.2329,0.2329,0.2263,0.2261,0.2258,0.2243,0,0,0.225,0.2249,0,0,0,0,0,0,0,0,0.2481,0.2475,0.241,0.2407,0.2403,0.2356,0.2375,0.2323,0.233,0.2357,0.2329,0.2329,0.2293,0.2288,0.2276,0.224,0.2237,0.225,0.2248,0.2247,0.2246,0,0,0,0,0,0,0,0.2485,0.2477,0.2405,0.2409,0.2405,0.2397,0.239,0.2365,0.2326,0.2355,0.2352,0.2345,0.2292,0.2279,0.2274,0.2236,0.225,0.2248,0.2246,0.2245,0.2186,0.2186,0,0,0,0,0,0,0.2493,0.2481,0.2407,0.2403,0.2443,0.2395,0.2387,0.2371,0.2326,0.232,0.2345,0.2343,0.2283,0.2277,0.2272,0.2251,0.2247,0.2245,0.2243,0.2186,0.2186,0.2186,0,0,0,0,0,0,0.2495,0.2486,0.241,0.2441,0.2431,0.2394,0.2376,0.237,0.2357,0.2319,0.2312,0.2338,0.2283,0.2275,0.2251,0.2249,0.2244,0.2241,0.2186,0.2186,0.2186,0.2211,0,0,0,0,0,0,0.2498,0.2487,0.2481,0.2441,0.2429,0.239,0.2376,0.2368,0.2352,0.235,0.2311,0.2305,0.2282,0.2255,0.2248,0.2245,0.2239,0.2186,0.2186,0.2186,0.221,0.2212,0.2213,0,0,0,0,0,0.2501,0.249,0.2481,0.2472,0.242,0.239,0.2383,0.2357,0.2352,0.2345,0.2322,0.2306,0.225,0.2253,0.2245,0.2241,0.2186,0.2186,0.2186,0.2209,0.2211,0.2213,0,0,0,0,0,0,0.253,0.2485,0.2473,0.2449,0.2424,0.2384,0.2375,0.236,0.2335,0.2334,0.2303,0.2295,0.2273,0.2254,0.2258,0.2224,0.2217,0.2215,0.2237,0.2239,0.224,0.2245,0.2237,0,0,0,0,0,0.2534,0.2513,0.2474,0.2456,0.2444,0.2412,0.2398,0.238,0.2352,0.2341,0.2316,0.229,0.2267,0.2252,0.2228,0.2208,0.2199,0.2201,0.2203,0.2204,0.2203,0.2192,0.2192,0.2186,0.2186,0.2186,0,0,0.2541,0.2513,0.2502,0.2461,0.2439,0.2419,0.2403,0.2381,0.2366,0.2338,0.2313,0.2294,0.2263,0.2241,0.223,0.2225,0.2203,0.2204,0.2206,0.2204,0.2192,0.2192,0.2193,0.2186,0.2186,0.2186,0,0,0.2543,0.252,0.2503,0.2481,0.2449,0.2428,0.2424,0.2387,0.2373,0.2348,0.2327,0.2308,0.2269,0.2248,0.2232,0.2228,0.2213,0.2222,0.223,0.2219,0.2219,0.222,0.2219,0.2219,0.2221,0.2221,0.2221,0,0.2555,0.2523,0.2496,0.2476,0.2459,0.2434,0.2417,0.2398,0.2359,0.2348,0.2344,0.2294,0.2272,0.2244,0.2244,0.2232,0.2227,0.2225,0.2222,0.2222,0.2221,0.222,0.222,0.2222,0.2222,0.2222,0.2222,0,0.254,0.2518,0.2509,0.2472,0.2455,0.2436,0.2407,0.2393,0.2377,0.2357,0.2332,0.2305,0.2276,0.2268,0.2252,0.2239,0.2237,0.2227,0.2219,0.2224,0.2222,0.2221,0.2224,0.2223,0.2223,0.2223,0,0,0.2557,0.2507,0.2504,0.2488,0.2451,0.2433,0.2415,0.2386,0.2375,0.235,0.2333,0.2301,0.2292,0.2275,0.2257,0.2248,0.2247,0.2239,0.2238,0.2241,0.2231,0.2239,0.2238,0.2237,0.2237,0.2237,0.2234,0,0.2553,0.2518,0.2494,0.2468,0.2448,0.2424,0.2408,0.2384,0.2365,0.2346,0.2325,0.2303,0.2293,0.2282,0.2272,0.2249,0.2245,0.2249,0.2222,0.2222,0.223,0.2237,0.2244,0.2243,0.2233,0.2233,0.2233,0,0.2544,0.252,0.2492,0.2459,0.2449,0.2435,0.2408,0.2389,0.2362,0.2349,0.233,0.2312,0.2292,0.2287,0.2259,0.2263,0.2251,0.2238,0.2237,0.2233,0.2227,0.2233,0.2241,0.2241,0.2231,0.2231,0.2232,0,0.2559,0.252,0.2498,0.2485,0.2445,0.2436,0.2419,0.2392,0.2377,0.2354,0.2344,0.2318,0.2304,0.2285,0.2262,0.2259,0.2237,0.2229,0.2226,0.2226,0.2221,0.2222,0.2227,0.2214,0.2214,0.2214,0.2214,0,0.2557,0.2541,0.2505,0.2491,0.2473,0.2446,0.2429,0.241,0.2387,0.237,0.2349,0.2334,0.2303,0.2285,0.2266,0.2246,0.224,0.223,0.2225,0.2231,0.2233,0.2222,0.2222,0.2214,0.2214,0.2214,0.2214,0,0.257,0.2545,0.252,0.2485,0.2476,0.2464,0.2434,0.2421,0.2402,0.2381,0.2375,0.2344,0.2321,0.2296,0.2265,0.2252,0.2234,0.2227,0.2243,0.224,0.2239,0.2239,0.2237,0.2236,0.2224,0.2225,0.2225,0,0.2571,0.2558,0.2522,0.2509,0.2493,0.2473,0.2457,0.2431,0.2416,0.2386,0.2376,0.2352,0.2331,0.2296,0.2271,0.2247,0.224,0.2241,0.2236,0.2243,0.224,0.2241,0.2239,0.2242,0.2242,0.2242,0.2243,0,0.2574,0.2563,0.2541,0.2516,0.2499,0.2477,0.2455,0.2446,0.2416,0.2401,0.2377,0.2361,0.233,0.2306,0.2279,0.2263,0.2248,0.2245,0.2243,0.2249,0.2258,0.2253,0.2246,0.2244,0.2244,0.2244,0.2244,0.2244,0.258,0.2568,0.2541,0.2519,0.25,0.248,0.2466,0.2446,0.2425,0.2398,0.2384,0.2361,0.2335,0.2298,0.2282,0.2264,0.2259,0.2257,0.2256,0.2255,0.2257,0.2262,0.2259,0.2259,0.2259,0.2259,0.2259,0,0.2583,0.2565,0.2544,0.2514,0.2497,0.2485,0.2461,0.2447,0.2427,0.2404,0.2384,0.2358,0.2335,0.231,0.2286,0.2276,0.2269,0.2271,0.2271,0.2268,0.2263,0.2267,0.2277,0.2277,0.2277,0.2277,0.2277,0.2277,0.2582,0.2561,0.2546,0.2516,0.2498,0.2475,0.2463,0.2445,0.2427,0.2398,0.238,0.2363,0.234,0.2314,0.2293,0.2286,0.2278,0.2282,0.2273,0.2269,0.2268,0.2266,0.227,0.2281,0.2281,0.2279,0.2279,0.228]},{"header":{"parameterUnit":"m.s-1","parameterCategory":1,"la1":30.2991,"la2":30.254,"lo1":-89.0895,"lo2":-89.0444,"dy":0.0017,"dx":0.0017,"nx":28,"ny":28,"refTime":"2023-10-14T03:00:00:Z","depth":0,"parameterNumber":3,"parameterNumberName":"V-component_of_WINDS"},"data":[0,0,0,0,0,0,0,0,0,0,0,0,0,0,0,0,0,0,0,0,0,0,0,0,0,0,0,0,0,0,0,0,0,0,0,0,0,0,0,0,0,0,0,0,0,0,0,0,0,0,0,0,0,0,0,0,0,0,-0.0964,-0.0966,0,-0.1202,-0.1205,-0.1208,-0.1298,-0.1297,-0.1296,-0.1296,-0.1546,-0.1553,-0.1561,0,0,0,0,0,0,0,0,0,0,0,0,0,-0.0592,-0.0598,-0.0964,-0.0967,-0.097,-0.1202,-0.1205,-0.1209,-0.1298,-0.1297,-0.1296,-0.1295,-0.1544,-0.1553,-0.1561,0,0,0,0,0,0,0,0,0,0,0,0,0,-0.0784,-0.06,-0.0963,-0.1042,-0.1052,-0.1201,-0.1205,-0.1209,-0.1298,-0.1297,-0.1296,-0.1295,-0.1541,-0.1552,-0.1563,-0.1653,0,0,-0.1596,-0.1601,0,0,0,0,0,0,0,0,-0.0773,-0.0798,-0.1028,-0.1037,-0.1048,-0.1219,-0.1166,-0.1358,-0.1298,-0.1205,-0.1296,-0.1294,-0.1439,-0.1458,-0.1506,-0.1665,-0.1676,-0.1597,-0.1604,-0.1609,-0.1612,0,0,0,0,0,0,0,-0.076,-0.0788,-0.1058,-0.1031,-0.1043,-0.1068,-0.1094,-0.1203,-0.1325,-0.1213,-0.122,-0.1247,-0.1444,-0.1495,-0.1512,-0.168,-0.1597,-0.1607,-0.1614,-0.1618,-0.1926,-0.1928,0,0,0,0,0,0,-0.0732,-0.0776,-0.1051,-0.1066,-0.0905,-0.1075,-0.1104,-0.1165,-0.1324,-0.1347,-0.1247,-0.125,-0.1476,-0.1499,-0.1521,-0.1639,-0.1609,-0.1619,-0.1626,-0.1925,-0.1927,-0.1928,0,0,0,0,0,0,-0.0724,-0.0756,-0.1041,-0.0923,-0.0961,-0.1083,-0.1151,-0.1171,-0.1221,-0.135,-0.1373,-0.1276,-0.1476,-0.1506,-0.162,-0.1648,-0.1624,-0.1634,-0.1923,-0.1925,-0.1928,-0.1873,0,0,0,0,0,0,-0.0713,-0.0752,-0.0787,-0.0923,-0.0967,-0.1133,-0.1152,-0.1176,-0.1239,-0.1245,-0.1383,-0.1405,-0.1478,-0.1603,-0.163,-0.1663,-0.1643,-0.1921,-0.1924,-0.1927,-0.1873,-0.1873,-0.1873,0,0,0,0,0,-0.0699,-0.0763,-0.0788,-0.0821,-0.1012,-0.1135,-0.116,-0.1241,-0.1241,-0.1278,-0.1361,-0.1401,-0.164,-0.1613,-0.1646,-0.1682,-0.192,-0.1923,-0.1927,-0.1873,-0.1873,-0.1873,0,0,0,0,0,0,-0.063,-0.0782,-0.0812,-0.0921,-0.1014,-0.115,-0.1198,-0.1238,-0.1335,-0.1336,-0.1434,-0.1464,-0.157,-0.1638,-0.1605,-0.1779,-0.1783,-0.1793,-0.1731,-0.1732,-0.1733,-0.1715,-0.1652,0,0,0,0,0,-0.0626,-0.0711,-0.0841,-0.0925,-0.097,-0.1076,-0.1132,-0.1186,-0.1287,-0.1327,-0.1419,-0.1517,-0.1615,-0.1677,-0.1774,-0.1882,-0.1915,-0.1924,-0.1924,-0.1923,-0.1932,-0.1995,-0.2001,-0.194,-0.194,-0.194,0,0,-0.0622,-0.0716,-0.0764,-0.0914,-0.0992,-0.108,-0.1108,-0.12,-0.1267,-0.1342,-0.1455,-0.1525,-0.1642,-0.1753,-0.1807,-0.1812,-0.1955,-0.1928,-0.1927,-0.1935,-0.1999,-0.2005,-0.201,-0.1942,-0.1942,-0.1941,0,0,-0.0658,-0.0737,-0.0816,-0.0893,-0.1011,-0.108,-0.1099,-0.1229,-0.1278,-0.1392,-0.145,-0.1532,-0.1698,-0.1778,-0.1841,-0.1907,-0.1948,-0.1936,-0.1938,-0.1998,-0.2003,-0.2008,-0.2032,-0.204,-0.1943,-0.1943,-0.1943,0,-0.0638,-0.0771,-0.0852,-0.094,-0.1005,-0.1075,-0.1156,-0.1228,-0.1372,-0.1416,-0.142,-0.1629,-0.1712,-0.1844,-0.1859,-0.1907,-0.1933,-0.1921,-0.1995,-0.2001,-0.2007,-0.2031,-0.204,-0.1941,-0.1941,-0.1941,-0.1941,0,-0.0741,-0.0832,-0.0882,-0.1016,-0.1087,-0.1171,-0.1267,-0.1329,-0.1376,-0.1445,-0.1561,-0.1663,-0.1782,-0.1817,-0.1865,-0.1956,-0.1956,-0.1976,-0.1983,-0.2009,-0.2034,-0.2044,-0.1937,-0.1938,-0.1939,-0.1939,0,0,-0.0741,-0.0918,-0.0936,-0.0998,-0.1132,-0.1205,-0.1293,-0.1407,-0.1458,-0.1555,-0.1633,-0.1771,-0.179,-0.1861,-0.1919,-0.1971,-0.2018,-0.1986,-0.199,-0.1989,-0.2126,-0.211,-0.2119,-0.2045,-0.2048,-0.2049,-0.2116,0,-0.0796,-0.0955,-0.103,-0.1156,-0.1242,-0.1309,-0.1386,-0.1478,-0.1545,-0.1629,-0.1705,-0.1801,-0.1819,-0.1862,-0.1917,-0.2,-0.2047,-0.1997,-0.2121,-0.2124,-0.209,-0.2132,-0.2117,-0.2175,-0.2126,-0.2128,-0.2129,0,-0.0882,-0.0976,-0.1109,-0.1233,-0.1272,-0.134,-0.145,-0.1529,-0.1635,-0.1681,-0.1759,-0.1814,-0.1911,-0.1909,-0.2046,-0.201,-0.2065,-0.2113,-0.2117,-0.2133,-0.2129,-0.215,-0.2195,-0.2204,-0.2145,-0.2144,-0.2143,0,-0.087,-0.103,-0.1131,-0.1182,-0.1328,-0.1374,-0.1438,-0.1542,-0.1606,-0.1703,-0.1746,-0.1854,-0.1913,-0.1997,-0.208,-0.2071,-0.2209,-0.2214,-0.2251,-0.2249,-0.2278,-0.2275,-0.2334,-0.2311,-0.2311,-0.2311,-0.2311,0,-0.0924,-0.1003,-0.1127,-0.1189,-0.128,-0.1367,-0.1456,-0.1525,-0.1617,-0.1695,-0.1761,-0.1833,-0.1939,-0.2025,-0.2091,-0.2194,-0.2221,-0.2262,-0.2279,-0.2257,-0.2251,-0.2295,-0.2294,-0.2314,-0.2313,-0.2313,-0.2312,0,-0.0926,-0.1012,-0.1126,-0.1255,-0.1289,-0.1351,-0.1463,-0.1527,-0.1596,-0.1695,-0.1723,-0.1833,-0.1938,-0.2029,-0.2169,-0.2213,-0.232,-0.234,-0.2283,-0.2293,-0.2325,-0.2321,-0.2414,-0.2431,-0.2396,-0.2396,-0.2396,0,-0.0955,-0.1018,-0.1153,-0.1208,-0.127,-0.136,-0.1424,-0.1512,-0.1577,-0.1702,-0.1751,-0.186,-0.1952,-0.2117,-0.2211,-0.2318,-0.2342,-0.2367,-0.2359,-0.2335,-0.2344,-0.2339,-0.2347,-0.2368,-0.2368,-0.2367,-0.2367,0,-0.0999,-0.1038,-0.1127,-0.1232,-0.1306,-0.1394,-0.1483,-0.1525,-0.163,-0.1701,-0.1807,-0.1878,-0.2019,-0.2127,-0.2244,-0.2312,-0.2358,-0.2369,-0.2384,-0.2362,-0.2327,-0.2348,-0.2284,-0.2367,-0.2367,-0.2367,-0.2367,-0.2367,-0.1017,-0.1075,-0.1179,-0.1277,-0.1352,-0.1434,-0.15,-0.1577,-0.1667,-0.1787,-0.1834,-0.1943,-0.2048,-0.221,-0.2278,-0.2366,-0.2373,-0.2394,-0.24,-0.2404,-0.24,-0.2311,-0.2387,-0.2388,-0.2388,-0.2388,-0.2388,0,-0.1064,-0.1134,-0.1223,-0.1344,-0.1421,-0.1455,-0.1555,-0.1618,-0.1712,-0.1805,-0.1894,-0.2017,-0.2122,-0.2223,-0.2334,-0.2385,-0.2409,-0.2411,-0.2409,-0.2424,-0.2387,-0.2364,-0.239,-0.239,-0.239,-0.239,-0.239,-0.239,-0.1098,-0.1199,-0.125,-0.139,-0.146,-0.1565,-0.162,-0.1696,-0.1771,-0.1904,-0.1991,-0.2055,-0.2153,-0.2271,-0.2369,-0.2396,-0.2435,-0.2432,-0.2465,-0.2428,-0.2427,-0.2426,-0.2404,-0.2439,-0.2439,-0.2495,-0.2496,-0.2496]}]]